TIME,DELAY(SENSOR),PRES,T(CTD),SAL,OXYGEN,RAWTEMP,T(OPTODE),TCPHASE,FLUOR,BETA(BETA700),BETA(BETA412),BETA(BETA440),CDOM,C(CSC),ED(ED411.90),ED(ED443.80),ED(ED489.40),ED(ED554.70),LU(LU412.20),LU(LU443.80),LU(LU489.40),LU(LU555.00),COMP,TILTX,TILTX(TILTY),CHECK
1339688827,5801,497.6700134277344000,15.6977996826171880,36.1257019042968750,211.1651000976562500,245.6759033203125000,15.6928501129150390,33.7966613769531250,50,107,101,80,70,15436,2147475053,2147772635,2147566326,2147802916,2147312667,2147470820,2147720448,2148237732,81,7,12,20148
1339688954,5803,485.9200134277344000,15.8591995239257810,36.1562995910644500,212.1006927490234400,239.9934997558593800,15.8656196594238280,33.6629295349121100,50,107,101,79,70,15435,2147479469,2147775616,2147563611,2147803593,2147314038,2147475666,2147723401,2148246966,432,7,13,53399
1339689071,5804,474.9500122070312500,15.9562997817993160,36.1739006042480500,211.6201019287109400,236.9756011962890600,15.9573802947998050,33.6466293334960940,50,107,100,80,69,15434,2147477833,2147768329,2147563638,2147805531,2147315428,2147475940,2147723136,2148244489,418,7,13,8347
1339689186,5803,464.3299865722656000,16.1368007659912100,36.2053985595703100,213.6918945312500000,231.2993927001953000,16.1299495697021500,33.4517517089843750,50,106,100,79,69,15437,2147475739,2147773046,2147564653,2147802459,2147317238,2147474852,2147721453,2148242816,819,7,13,5129
1339689301,5800,453.6199951171875000,16.2427997589111330,36.2260017395019500,213.4476928710937500,227.6181030273437500,16.2418708801269530,33.4127311706543000,50,107,100,79,70,15435,2147476269,2147771693,2147564416,2147798902,2147311908,2147476205,2147720000,2148234139,1081,7,13,19935
1339689430,5802,441.7500000000000000,16.4109001159667970,36.2592010498046900,216.8365020751953000,221.7577972412109400,16.4200496673584000,33.1456489562988300,50,107,101,80,69,15435,2147481819,2147768841,2147564123,2147802304,2147316297,2147476836,2147714688,2148246253,1627,7,13,28449
1339689545,5803,431.4100036621094000,16.5368003845214840,36.2827987670898440,218.9407043457031200,217.9868927001953000,16.5347003936767580,32.9803390502929700,50,106,100,79,68,15434,2147480182,2147771428,2147562989,2147798482,2147313225,2147477933,2147716534,2148244845,2371,7,13,6504
1339689674,5804,419.9599914550781000,16.6431999206542970,36.3025016784668000,218.6894073486328000,214.4830017089843800,16.6412391662597660,32.9448318481445300,50,107,100,80,69,15435,2147483355,2147768539,2147561709,2147801133,2147315337,2147476068,2147711396,2148245769,2280,7,13,32548
1339689801,5805,408.8999938964844000,16.7798995971679700,36.3296012878418000,220.6226043701172000,209.9712982177734400,16.7784404754638670,32.7794113159179700,50,107,101,80,69,15436,2147482550,2147768749,2147562203,2147800036,2147312941,2147478381,2147716470,2148241472,3569,7,13,46391
1339689928,5804,397.9200134277344000,16.8659000396728500,36.3469009399414060,222.0258941650390600,207.0484008789062500,16.8673191070556640,32.6656799316406250,50,109,99,80,69,15435,2147480484,2147770093,2147559140,2147798546,2147318656,2147479945,2147710665,2148243995,672,7,13,28342
1339690057,5801,386.8500061035156000,17.0319995880126950,36.3807983398437500,225.7279968261718800,201.8350067138672000,17.0258808135986330,32.4024810791015600,50,107,99,79,68,15435,2147484150,2147771190,2147559561,2147798198,2147314880,2147478025,2147712832,2148245394,1336,7,13,20550
1339690196,5804,375.1199951171875000,17.1448993682861330,36.4043006896972660,229.4338073730468800,198.0659027099609400,17.1405105590820300,32.1636390686035160,50,107,100,79,68,15435,2147482989,2147769252,2147563282,2147797083,2147318765,2147479616,2147713929,2148244891,2333,7,13,23303
1339690325,5803,364.4400024414062500,17.2210006713867200,36.4216995239257800,231.4669952392578000,195.5088043212890600,17.2182998657226560,32.0276298522949200,50,108,100,79,66,15434,2147484059,2147769490,2147563885,2147796306,2147321234,2147477302,2147712786,2148245065,3204,7,13,56792
1339690464,5804,353.3500061035156000,17.3036994934082030,36.4388999938964840,234.5372924804687500,192.7229003906250000,17.3030490875244140,31.8396492004394530,50,109,100,79,68,15431,2147488210,2147766710,2147560777,2147795501,2147314861,2147475401,2147708160,2148238930,1032,7,13,50514
1339690624,5802,340.3399963378906000,17.3775997161865230,36.4528999328613300,235.4700927734375000,190.3811950683593800,17.3742904663085940,31.7622699737548830,50,108,100,79,67,15432,2147481755,2147766683,2147560539,2147795401,2147314002,2147476809,2147709357,2148240292,2251,7,13,2129
1339690738,5804,329.2399902343750000,17.4421005249023440,36.4640007019043000,235.5552062988281200,188.1347961425781200,17.4426403045654300,31.7275791168212900,50,112,101,81,67,15427,2147487597,2147766025,2147560566,2147795611,2147310774,2147479469,2147711460,2148242112,332,7,12,18799
1339690853,5804,317.7900085449219000,17.5160999298095700,36.4767990112304700,237.0050964355468800,185.5850067138672000,17.5202293395996100,31.6236000061035160,50,115,102,80,66,15421,2147484534,2147767808,2147562715,2147791350,2147317494,2147477622,2147709394,2148241883,1097,7,13,5286
1339690958,5804,307.3399963378906000,17.5883007049560550,36.4879989624023440,237.5299072265625000,183.4013061523437500,17.5866794586181640,31.5689201354980470,50,114,101,82,68,15420,2147487945,2147767369,2147562870,2147790610,2147313490,2147478573,2147711040,2148237915,1579,7,12,25946
1339691073,5803,295.8699951171875000,17.6487007141113280,36.4980010986328100,237.4290008544922000,181.4398956298828000,17.6463699340820300,31.5471000671386720,50,114,101,81,67,15419,2147485037,2147769618,2147565366,2147796489,2147315181,2147480054,2147714742,2148241033,2099,7,13,56017
1339691188,5804,284.4200134277344000,17.7064990997314450,36.5045013427734400,236.6730957031250000,179.5303039550781200,17.7044906616210940,31.5572891235351560,49,114,102,81,67,15414,2147485476,2147766171,2147564498,2147794450,2147315721,2147481408,2147714102,2148243666,2943,7,12,54718
1339691305,5804,272.7000122070312500,17.7660007476806640,36.5074996948242200,236.1250000000000000,177.5339050292968800,17.7652606964111330,31.5565395355224600,50,118,102,81,67,15413,2147489225,2147765677,2147565513,2147794203,2147317622,2147480768,2147718637,2148242212,3572,8,13,54975
1339691408,5803,262.3699951171875000,17.8229007720947270,36.5066986083984400,234.9246063232422000,175.7653961181640600,17.8190898895263670,31.5904197692871100,50,116,102,81,67,15409,2147486784,2147769764,2147566994,2147794669,2147313974,2147480155,2147712036,2148240356,788,7,13,55115
1339691523,5804,250.8800048828125000,17.9109992980957030,36.5094985961914060,233.1233062744140600,172.8018035888672000,17.9093208312988280,31.6376094818115230,50,116,103,84,67,15406,2147488146,2147771254,2147571474,2147794669,2147316352,2147481014,2147716955,2148238528,1062,7,12,42635
1339691640,5802,240.5500030517578000,17.9687995910644530,36.5122985839843750,232.0955963134765600,170.8769989013672000,17.9679203033447270,31.6616497039794920,50,116,104,82,67,15407,2147487561,2147775076,2147577508,2147795858,2147320393,2147482185,2147722907,2148244361,1526,7,12,55006
1339691791,5805,229.6199951171875000,18.1784000396728500,36.5284004211425800,230.8852996826172000,164.3148040771484400,18.1677703857421880,31.6324291229248050,50,117,102,82,68,15409,2147487552,2147775058,2147590747,2147795602,2147311908,2147485430,2147729874,2148242953,3007,7,13,2263
1339691946,5805,217.2299957275390600,18.8145999908447270,36.5736999511718750,232.6361999511718800,143.6304016113281200,18.7982196807861330,31.2698001861572270,50,117,103,82,66,15410,2147489426,2147782747,2147603392,2147794934,2147317184,2147491666,2147732745,2148241124,3368,7,12,58171
1339692073,5804,206.0800018310547000,19.2879009246826170,36.6054000854492200,248.1242980957031200,127.7639007568359400,19.2824401855468750,30.3416404724121100,50,116,103,81,64,15406,2147496484,2147795958,2147629412,2147792969,2147308644,2147499629,2147747803,2148238491,681,7,12,54231
1339692176,5805,197.4199981689453000,19.3411006927490230,36.6059989929199200,255.0520935058593800,126.0053024291992200,19.3361492156982420,30.0149497985839840,51,115,103,82,64,15408,2147493942,2147800420,2147650011,2147791734,2147314377,2147510436,2147759003,2148238619,904,7,13,23239
1339692251,5805,191.5399932861328000,19.3724002838134770,36.6100997924804700,257.7026977539062500,124.9406967163086000,19.3686695098876950,29.8876304626464840,52,118,102,82,63,15402,2147496274,2147802185,2147647213,2147790354,2147314112,2147508050,2147758665,2148237147,1051,7,12,47013
1339692306,5803,187.6600036621093800,19.3764991760253900,36.6092987060546900,259.5704956054687500,124.7580032348632800,19.3742504119873050,29.8059501647949220,53,121,102,84,63,15402,2147498642,2147803099,2147651273,2147791104,2147310400,2147510208,2147760969,2148241408,1260,7,13,32362
1339692361,5802,183.8500061035156200,19.3789005279541000,36.6078987121582000,260.7348022460937500,124.6909027099609400,19.3763008117675780,29.7560997009277340,54,119,102,84,64,15406,2147500608,2147802742,2147649005,2147793033,2147321298,2147516726,2147760329,2148238985,1564,7,13,40653
1339692416,5802,180.0399932861328000,19.3817005157470700,36.6064987182617200,261.0983886718750000,124.6072006225586000,19.3788604736328120,29.7397003173828120,56,122,105,83,63,15397,2147501979,2147806893,2147657984,2147789915,2147315648,2147513956,2147765238,2148239369,1926,7,12,20177
1339692483,5803,175.5299987792968800,19.3831005096435550,36.6052017211914060,261.3417968750000000,124.5493011474609400,19.3806304931640620,29.7289695739746100,59,123,104,82,62,15398,2147499373,2147810203,2147667602,2147786779,2147311707,2147519524,2147768603,2148241316,2617,7,13,32430
1339692561,5801,170.7299957275390600,19.3838005065917970,36.6030998229980500,261.2229003906250000,124.5282974243164000,19.3812694549560550,29.7335090637207030,61,122,103,82,63,15395,2147502134,2147815003,2147679817,2147789092,2147317604,2147519981,2147777746,2148241947,3477,7,13,54507
1339692628,5803,167.1999969482422000,19.3838005065917970,36.6026992797851560,261.4986877441406000,124.5215988159179700,19.3814697265625000,29.7220306396484380,62,120,103,81,64,15396,2147504457,2147815113,2147681664,2147789696,2147320795,2147520448,2147778624,2148239433,334,7,12,582
1339692707,5802,163.1199951171875000,19.3812007904052730,36.6003990173339840,261.6025085449219000,124.6091995239257800,19.3787994384765620,29.7186908721923830,63,121,103,82,64,15380,2147509330,2147827483,2147708169,2147791122,2147318528,2147527853,2147793133,2148241627,601,7,12,16092
1339692774,5803,159.6499938964843800,19.3803005218505860,36.5993995666503900,261.9161071777344000,124.6361999511718800,19.3779697418212900,29.7059593200683600,64,124,103,83,63,15393,2147516790,2147847094,2147745216,2147790043,2147319049,2147540754,2147815616,2148242084,809,7,12,9428
1339692855,5802,155.4900054931640600,19.3766994476318360,36.5961990356445300,262.1774902343750000,124.7363967895507800,19.3749103546142580,29.6962890625000000,67,123,103,83,63,15390,2147521609,2147869860,2147791552,2147790317,2147327497,2147555291,2147844105,2148244205,890,7,13,28405
1339692934,5803,151.4900054931640600,19.3784999847412100,36.5952987670898440,262.1243896484375000,124.6979980468750000,19.3760890960693360,29.6982002258300780,71,125,102,83,63,15384,2147527314,2147884150,2147819428,2147790043,2147330212,2147563794,2147858907,2148244891,974,7,12,51336
1339693013,5800,147.4199981689453000,19.3812999725341800,36.5960006713867200,261.9761962890625000,124.5935974121093800,19.3792705535888670,29.7029399871826170,75,127,102,84,63,15377,2147528603,2147885248,2147822976,2147788169,2147323309,2147571858,2147860982,2148244379,1073,7,12,40042
1339693092,5803,143.3000030517578000,19.3861999511718750,36.5957984924316400,261.9630126953125000,124.4550018310546900,19.3834991455078120,29.7017192840576170,86,128,104,83,62,15369,2147530294,2147881837,2147802486,2147789266,2147332534,2147563254,2147846473,2148244443,1285,7,12,61426
1339693161,5803,139.6399993896484400,19.3876991271972660,36.5954017639160160,262.0043945312500000,124.4057998657226600,19.3850097656250000,29.6994209289550780,90,129,104,84,63,15356,2147537545,2147890724,2147819584,2147791396,2147326070,2147566994,2147853613,2148246308,1311,7,13,8757
1339693240,5801,135.3699951171875000,19.3896007537841800,36.5942993164062500,262.0484924316406000,124.3432006835937500,19.3869209289550780,29.6965408325195300,99,131,103,84,62,15346,2147540470,2147910948,2147852379,2147787620,2147334610,2147573211,2147868160,2148245888,1307,7,12,13214
1339693319,5805,131.1000061035156200,19.3967990875244140,36.5950012207031250,262.4814147949219000,124.0830993652343800,19.3948707580566400,29.6754398345947270,108,128,105,84,63,15342,2147556306,2147952722,2147926656,2147787254,2147338294,2147592438,2147898066,2148245750,1370,7,12,50391
1339693386,5800,127.4599990844726600,19.4060001373291000,36.5946006774902340,263.2314147949219000,123.8238983154296900,19.4027805328369140,29.6408691406250000,116,136,104,83,64,15340,2147592246,2148041444,2148090038,2147792201,2147354093,2147636690,2147975533,2148254930,1563,7,13,59490
1339693467,5804,123.1299972534179700,19.4134006500244140,36.5947990417480500,264.1740112304687500,123.5719985961914000,19.4104804992675780,29.5984191894531250,123,134,105,85,63,15330,2147629385,2148140077,2148267218,2147792923,2147367817,2147678043,2148050422,2148259053,1600,8,13,44573
1339693534,5803,119.6399993896484400,19.4244995117187500,36.5946006774902340,265.2453002929687500,123.1953964233398400,19.4219894409179700,29.5494403839111330,128,133,104,84,64,15329,2147658468,2148195830,2148355913,2147793545,2147379803,2147699803,2148078226,2148263744,1709,7,13,61740
1339693613,5804,115.5800018310546900,19.4304008483886720,36.5945014953613300,265.9486083984375000,123.0011978149414000,19.4279193878173830,29.5182304382324220,133,133,104,82,65,15320,2147717860,2148332635,2148569472,2147797019,2147400036,2147749613,2148162450,2148266806,2202,7,12,33710
1339693692,5803,111.7200012207031200,19.4435005187988280,36.5947990417480500,266.9079895019531000,122.5823974609375000,19.4407100677490230,29.4735908508300780,124,135,104,83,66,15326,2147815405,2148553252,2148912777,2147801161,2147436196,2147837412,2148301686,2148281197,2808,7,13,59331
1339693785,5805,107.2699966430664000,19.4675998687744140,36.5946998596191400,268.8288879394531000,121.7829971313476600,19.4651393890380860,29.3851299285888670,137,139,106,84,65,15301,2147996973,2148942016,2149485522,2147812982,2147500644,2147981476,2148526189,2148301440,3015,7,13,14900
1339693864,5805,103.4800033569336000,19.4911994934082030,36.5941009521484400,270.4270019531250000,121.0378036499023400,19.4879093170166000,29.3111991882324220,130,135,105,84,65,15299,2147974235,2148843684,2149245238,2147812269,2147494509,2147927040,2148411538,2148293549,2967,7,13,14430
1339693943,5801,99.6999969482421900,19.5156002044677730,36.5938987731933600,272.0696105957031000,120.3062973022461000,19.5102596282959000,29.2362098693847660,112,138,106,85,63,15296,2147832896,2148484964,2148628242,2147803108,2147432420,2147776448,2148157504,2148273435,3139,7,13,48668
1339693998,5805,97.0500030517578100,19.5247001647949220,36.5947990417480500,272.9562988281250000,119.9012985229492200,19.5226402282714840,29.1958198547363280,112,138,104,85,64,15294,2147788306,2148376420,2148429357,2147799195,2147415972,2147730605,2148069238,2148267190,3302,7,12,25029
1339694053,5802,94.3700027465820300,19.5492000579834000,36.5955009460449200,273.8045959472656000,119.1715011596679700,19.5449409484863280,29.1528892517089840,112,141,106,85,64,15272,2147889042,2148563803,2148679433,2147806464,2147459126,2147802614,2148178029,2148278317,3358,7,13,50069
1339694110,5802,91.6600036621093800,19.5650005340576170,36.5952987670898440,274.6932067871094000,118.6072006225586000,19.5621891021728500,29.1105594635009770,107,141,107,86,64,15278,2147866560,2148491620,2148542326,2147806253,2147453302,2147781805,2148128338,2148274733,13,7,12,26042
1339694165,5804,88.9700012207031200,19.6051998138427730,36.5948982238769500,275.6780090332031000,117.3663024902343800,19.6001091003417970,29.0561790466308600,109,140,108,88,63,15261,2147775862,2148295890,2148252800,2147798784,2147419227,2147702884,2148010121,2148262875,3585,7,13,29482
1339694220,5804,86.3799972534179700,19.6166000366210940,36.5962982177734400,276.7355957031250000,116.6964035034179700,19.6205902099609380,29.0063209533691400,100,145,108,87,63,15256,2147992164,2148678354,2148743021,2147810688,2147497947,2147870848,2148228187,2148280713,3363,7,13,4950
1339694275,5803,83.8199996948242200,19.6700000762939450,36.5954017639160160,277.6030883789062500,115.5662994384765600,19.6551399230957030,28.9581394195556640,98,146,108,87,62,15253,2148374720,2149342491,2149569947,2147836352,2147664064,2148173485,2148610304,2148317522,3454,7,13,36121
1339694330,5805,81.2799987792968800,19.7054004669189450,36.5957984924316400,278.8075866699219000,114.1672973632812500,19.6979103088378900,28.8938903808593750,97,146,110,87,62,15244,2148864950,2150189942,2150592192,2147859885,2147873014,2148562733,2149105206,2148364982,53,7,13,23122
1339694385,5804,78.8600006103515600,19.7392997741699220,36.5951995849609400,279.5277099609375000,112.9786987304687500,19.7342491149902340,28.8511390686035160,100,144,109,86,62,15232,2149819401,2151763072,2152508672,2147924699,2148276306,2149298459,2150021293,2148452653,109,7,13,61299
1339694442,5806,76.5999984741211000,19.7714996337890620,36.5966987609863300,280.2778930664062500,112.0048980712890600,19.7640399932861330,28.8099708557128900,93,147,111,87,63,15226,2150906816,2153502171,2154565979,2147997467,2148750445,2150145965,2151033819,2148555602,294,7,13,2415
1339694497,5805,74.5800018310546900,19.8197994232177730,36.5951995849609400,280.8421936035156000,110.3556976318359400,19.8144798278808600,28.7675895690917970,92,147,109,88,61,15213,2151970605,2155108361,2156377179,2148072201,2149226505,2150932544,2151955684,2148641170,626,7,13,37382
1339694552,5802,72.7900009155273400,19.8708000183105470,36.5965003967285160,279.9367980957031000,108.8107986450195300,19.8617401123046880,28.7828197479248050,88,146,108,87,63,15226,2152920356,2156450514,2157807670,2148139227,2149643163,2151623241,2152706230,2148717120,731,7,13,34703
1339694607,5802,71.1299972534179700,19.9508991241455080,36.5960998535156250,280.4679870605469000,106.2590026855468800,19.9398097991943360,28.7303199768066400,86,154,110,89,62,15217,2153685696,2157443968,2158794486,2148196745,2150011117,2152162861,2153259748,2148774116,534,7,13,31747
1339694686,5802,69.1200027465820300,19.9993991851806640,36.5873985290527340,281.2124023437500000,104.5174026489257800,19.9931106567382800,28.6800098419189450,88,151,111,89,61,15189,2154228123,2157984009,2159163428,2148237833,2150313152,2152549705,2153551478,2148803072,575,7,13,35568
1339694761,5805,66.8700027465820300,20.1648998260498050,36.5950012207031250,281.3088989257812500,99.2456665039062500,20.1544990539550780,28.6103096008300780,82,151,112,89,63,15195,2154319780,2157769645,2158640228,2148248777,2150437760,2152605110,2153435849,2148804928,621,8,12,8036
1339694816,5803,64.7500000000000000,20.2276992797851560,36.5928001403808600,281.7380065917969000,97.4370574951171900,20.2098903656005860,28.5714302062988280,82,148,110,88,61,15177,2154370779,2157557568,2158192438,2148255826,2150541046,2152614025,2153316278,2148795858,1085,7,13,19955
1339694871,5804,62.7400016784668000,20.3736000061035160,36.6018981933593750,281.5364990234375000,92.5967788696289000,20.3581790924072270,28.5185298919677730,83,149,111,89,61,15177,2154353380,2157300132,2157740077,2148266742,2150589522,2152577618,2153154514,2148784320,1325,7,13,33237
1339694926,5802,60.9199981689453100,20.5513000488281250,36.6038017272949200,281.1901855468750000,88.3950729370117200,20.4869709014892580,28.4794502258300780,79,146,110,87,58,15187,2154960045,2157944384,2158324964,2148326354,2150958765,2153041837,2153550034,2148830272,1171,7,13,8495
1339694993,5805,59.1100006103515600,20.6245002746582030,36.6083984375000000,281.0661010742187500,84.4955902099609400,20.6065502166748050,28.4357604980468750,78,148,112,88,62,15194,2154843245,2157615012,2157863241,2148324068,2151003291,2152985572,2153391798,2148822756,1195,7,13,61151
1339695072,5802,56.7500000000000000,20.7814006805419920,36.6068992614746100,280.3642883300781000,79.1351470947265600,20.7710399627685550,28.3959407806396500,73,146,109,88,61,15185,2156315492,2159257563,2159419538,2148491126,2151938084,2154131008,2154377005,2148941430,893,7,13,46353
1339695127,5805,54.2799987792968750,20.9613990783691400,36.5987014770507800,278.9183959960937500,73.6161727905273400,20.9404907226562500,28.3825206756591800,73,148,111,88,60,15163,2157549504,2160603355,2160694427,2148629074,2152801929,2155177910,2155261056,2149047140,618,7,13,16501
1339695269,5807,49.1100006103515600,21.1147994995117200,36.5900001525878900,277.5905151367187500,68.3504409790039000,21.1022891998291000,28.3683300018310550,71,148,109,88,60,15174,2164736978,2168925120,2169055744,2149556260,2157512813,2161072740,2160621540,2149710235,615,7,13,25164
1339695301,5804,47.8499984741210940,21.1219997406005860,36.5909996032714840,277.3373107910156000,67.9816436767578100,21.1136302947998050,28.3733997344970700,70,147,111,86,60,15185,2166323693,2170672429,2170795840,2149810057,2158632832,2162382875,2161753517,2149864265,591,7,13,27926
1339695378,5801,45.0099983215332000,21.1837005615234380,36.5803985595703100,276.7803955078125000,65.7661590576171900,21.1817398071289060,28.3674507141113280,67,145,110,88,60,15178,2169852169,2174301613,2174299675,2150404059,2161408914,2165466093,2164349037,2150234523,196,7,13,44471
1339695410,5802,43.4399986267089840,21.2236995697021500,36.5784988403320300,276.6766052246094000,64.5263900756836000,21.2198600769042970,28.3562507629394530,67,145,110,89,59,15180,2171551744,2176002587,2175940937,2150762404,2162922368,2167081197,2165648512,2150425709,3535,7,13,59417
1339695453,5803,41.3199996948242200,21.2586994171142580,36.5694999694824200,276.1281127929687500,62.8061904907226560,21.2727699279785160,28.3560791015625000,66,143,109,87,60,15179,2174482523,2178927588,2178786724,2151394797,2165422372,2169759689,2167827291,2150770075,3513,7,12,34716
1339695485,5804,39.8100013732910160,21.3083000183105470,36.5689010620117200,275.9171142578125000,61.6740188598632800,21.3075904846191400,28.3502292633056640,65,143,110,87,60,15189,2176490240,2180943460,2180758290,2151803931,2167248777,2171748187,2169392603,2151006729,3268,7,12,52198
1339695539,5803,37.5699996948242200,21.4116001129150400,36.5672988891601560,275.4323120117187500,58.5415496826171900,21.4039897918701170,28.3302192687988280,63,145,111,88,60,15183,2177401737,2181398326,2181100525,2152318445,2168751378,2173005458,2170202468,2151203986,3091,7,12,39831
1339695582,5802,35.9099998474121100,21.4547996520996100,36.5704002380371100,274.9888000488281000,56.9973907470703100,21.4515209197998050,28.3283596038818360,62,141,109,89,59,15187,2179246116,2183122112,2182740662,2152788022,2170784256,2175080795,2171710061,2151465627,2846,7,13,41216
1339695614,5804,34.7599983215332000,21.5041999816894530,36.5750999450683600,275.0350952148437500,55.9267807006835940,21.4844799041748050,28.3132305145263670,62,142,109,88,59,15194,2183690724,2187748297,2187368896,2153797741,2174539684,2179094089,2175047451,2151998326,2426,7,12,49237
1339695682,5803,32.6699981689453100,21.6683006286621100,36.5713005065918000,274.2278137207031000,50.3824310302734400,21.6552505493164060,28.2762393951416000,62,139,110,87,57,15181,2188770633,2192690048,2192186944,2155125723,2179440137,2184164013,2178893284,2152661348,1812,7,13,25212
1339695758,5804,30.8899993896484380,21.8509006500244140,36.5531997680664060,273.1838989257812500,44.2234992980957000,21.8451194763183600,28.2407398223876950,62,142,111,88,60,15173,2193435931,2197215616,2196542354,2156427483,2184373101,2189190253,2182664868,2153304786,1638,7,13,46893